Mobridge, SD

8:48 PM CDT on September 25, 2016 (GMT -0500)
Mobridge Municipal

Weather History for KMBG - February, 2013

Change the Weather History Date:

Sunday, February 10, 2013

  Actual Average Record
Temperature  
Mean Temperature 26 °F 19 °F  
Max Temperature 29 °F 30 °F 65 °F (1951)
Min Temperature 22 °F 9 °F -29 °F (1944)
Degree Days  
Heating Degree Days 39 46  
Month to date heating degree days 394 467  
Since 1 July heating degree days 5079 5200  
Cooling Degree Days 0 0  
Month to date cooling degree days 0 0  
Year to date cooling degree days 0 0  
Moisture  
Dew Point 21 °F    
Average Humidity 89    
Maximum Humidity 96    
Minimum Humidity 81    
Precipitation  
Precipitation 0.20 in 0.02 in 0.22 in (1976)
Month to date precipitation 0.23 0.14  
Year to date precipitation 0.83 0.43  
Snow  
Snow 0.00 in - - ()
Month to date snowfall 0.2  
Since 1 July snowfall 20.0  
Snow Depth -    
Sea Level Pressure  
Sea Level Pressure 29.68 in    
Wind  
Wind Speed 20 mph (NNW)    
Max Wind Speed 33 mph    
Max Gust Speed 43 mph    
Visibility 3 miles    
Events Fog , Snow    
T = Trace of Precipitation, MM = Missing Value Source: NWS Daily Summary

Daily Weather History Graph

Daily Weather History Graph

Search for Another Location

Airport or City:

Trip Planner

Search our weather history database for the weather conditions in past years. The results will help you decide how hot, cold, wet, or windy it might be!

Date:

Astronomy

Feb. 10, 2013 Rise Set
Actual Time 7:50 AM CST 6:01 PM CST
Civil Twilight 7:19 AM CST 6:32 PM CST
Nautical Twilight 6:44 AM CST 7:07 PM CST
Astronomical Twilight 6:10 AM CST 7:42 PM CST
Moon 7:37 AM CST (2/10) 7:00 PM CST (2/10)
Length of Visible Light 11h 13m
Length of Day
10h 11m
New Moon, 0% of the Moon is Illuminated
Feb 10
New Moon
Feb 17
First Quarter
Feb 25
Full
Mar 4
Last Quarter
Mar 11
New

Hourly Weather History & Observations

Time (CST) Temp. Windchill Dew Point Humidity Pressure Visibility Wind Dir Wind Speed Gust Speed Precip Events Conditions
12:27 AM 24.8 °F 13.4 °F 23.0 °F 93% 29.68 in 1.5 mi North 12.7 mph - 0.00 in Snow Light Snow
12:52 AM 24.1 °F 11.5 °F 23.0 °F 96% 29.75 in 1.2 mi North 15.0 mph - 0.00 in Snow Light Snow
1:08 AM 24.8 °F 13.4 °F 23.0 °F 93% 29.69 in 0.8 mi North 12.7 mph - 0.01 in Snow Light Snow
1:26 AM 24.8 °F 14.6 °F 23.0 °F 93% 29.68 in 1.0 mi North 10.4 mph - 0.04 in Snow Light Snow
1:47 AM 24.8 °F 13.4 °F 21.2 °F 86% 29.67 in 1.0 mi North 12.7 mph - 0.05 in Snow Light Snow
1:52 AM 24.1 °F 12.5 °F 21.9 °F 91% 29.73 in 1.2 mi North 12.7 mph - 0.06 in Snow Light Snow
2:34 AM 24.8 °F 14.0 °F 21.2 °F 86% 29.66 in 2.0 mi North 11.5 mph - 0.01 in Snow Light Snow
2:47 AM 24.8 °F 13.4 °F 21.2 °F 86% 29.65 in 1.2 mi North 12.7 mph - 0.01 in Snow Light Snow
2:52 AM 24.1 °F 12.5 °F 21.9 °F 91% 29.72 in 1.0 mi North 12.7 mph - 0.01 in Snow Light Snow
3:02 AM 24.8 °F 14.0 °F 21.2 °F 86% 29.65 in 0.8 mi North 11.5 mph - 0.01 in Snow Light Snow
3:14 AM 24.8 °F 13.4 °F 21.2 °F 86% 29.65 in 1.0 mi North 12.7 mph - 0.02 in Snow Light Snow
3:28 AM 23.0 °F 11.7 °F 21.2 °F 93% 29.65 in 1.5 mi North 11.5 mph - 0.03 in Snow Light Snow
3:52 AM 23.0 °F 11.7 °F 21.0 °F 92% 29.71 in 2.0 mi NNW 11.5 mph - 0.04 in Snow Light Snow
4:12 AM 23.0 °F 11.1 °F 21.2 °F 93% 29.63 in 1.5 mi North 12.7 mph - 0.01 in Snow Light Snow
4:50 AM 21.2 °F 6.8 °F 19.4 °F 93% 29.61 in 2.5 mi North 17.3 mph - 0.02 in   Overcast
4:52 AM 21.9 °F 7.3 °F 19.9 °F 92% 29.68 in 2.5 mi North 18.4 mph - 0.02 in   Overcast
5:06 AM 21.2 °F 7.3 °F 19.4 °F 93% 29.61 in 3.0 mi North 16.1 mph 24.2 mph 0.00 in Snow Light Snow
5:15 AM 21.2 °F 7.8 °F 19.4 °F 93% 29.62 in 2.5 mi North 15.0 mph - 0.00 in Snow Light Snow
5:43 AM 21.2 °F 6.0 °F 19.4 °F 93% 29.61 in 1.8 mi North 19.6 mph 24.2 mph 0.00 in Snow Light Snow
5:52 AM 21.9 °F 7.8 °F 19.0 °F 89% 29.68 in 1.8 mi North 17.3 mph - 0.00 in Snow Light Snow
6:08 AM 21.2 °F 6.8 °F 19.4 °F 93% 29.61 in 1.2 mi North 17.3 mph 24.2 mph 0.00 in Snow Light Snow
6:52 AM 23.0 °F 9.6 °F 19.9 °F 88% 29.68 in 1.0 mi North 16.1 mph - 0.02 in Snow Light Snow
7:52 AM 23.0 °F 8.7 °F 19.9 °F 88% 29.66 in 2.0 mi North 18.4 mph - 0.02 in Snow Light Snow
8:01 AM 23.0 °F 7.6 °F 19.4 °F 86% 29.59 in 1.5 mi North 21.9 mph 29.9 mph 0.00 in Snow Light Snow
8:19 AM 23.0 °F 8.7 °F 19.4 °F 86% 29.59 in 0.5 mi North 18.4 mph 26.5 mph 0.00 in Fog , Snow Snow
8:32 AM 23.0 °F 8.3 °F 19.4 °F 86% 29.59 in 0.5 mi North 19.6 mph 26.5 mph 0.00 in Fog , Snow Snow
8:52 AM 23.0 °F 8.3 °F 19.9 °F 88% 29.67 in 0.5 mi North 19.6 mph 28.8 mph 0.00 in Fog , Snow Snow
9:19 AM 23.0 °F 8.0 °F 19.4 °F 86% 29.59 in 1.0 mi North 20.7 mph 29.9 mph 0.02 in Snow Light Snow
9:26 AM 24.8 °F 11.1 °F 21.2 °F 86% 29.60 in 1.0 mi North 18.4 mph 26.5 mph 0.03 in Snow Light Snow
9:52 AM 23.0 °F 8.3 °F 19.9 °F 88% 29.67 in 1.2 mi North 19.6 mph 26.5 mph 0.03 in Snow Light Snow
10:13 AM 23.0 °F 7.6 °F 21.2 °F 93% 29.60 in 2.5 mi North 21.9 mph 28.8 mph 0.00 in Snow Light Snow
10:34 AM 23.0 °F 7.2 °F 19.4 °F 86% 29.60 in 4.0 mi NNW 23.0 mph 29.9 mph 0.00 in Snow Light Snow
10:52 AM 23.0 °F 8.7 °F 19.9 °F 88% 29.68 in 5.0 mi NNW 18.4 mph 28.8 mph 0.00 in   Overcast
11:52 AM 24.1 °F 8.7 °F 21.0 °F 88% 29.68 in 6.0 mi NNW 23.0 mph 33.4 mph 0.00 in   Overcast
12:31 PM 24.8 °F 9.6 °F 21.2 °F 86% 29.61 in 5.0 mi North 23.0 mph 33.4 mph 0.00 in   Overcast
12:52 PM 25.0 °F 10.9 °F 21.0 °F 85% 29.68 in 8.0 mi NNW 19.6 mph 29.9 mph 0.00 in   Overcast
1:04 PM 24.8 °F 10.7 °F 21.2 °F 86% 29.61 in 7.0 mi North 19.6 mph 27.6 mph N/A   Overcast
1:11 PM 26.6 °F 12.7 °F 21.2 °F 80% 29.61 in 6.0 mi North 20.7 mph 27.6 mph N/A   Overcast
1:52 PM 26.1 °F 11.6 °F 23.0 °F 88% 29.68 in 4.0 mi North 21.9 mph 29.9 mph 0.00 in   Overcast
2:33 PM 28.4 °F 15.1 °F 24.8 °F 86% 29.60 in 7.0 mi North 20.7 mph 26.5 mph 0.00 in   Overcast
2:52 PM 28.9 °F 14.8 °F 24.1 °F 82% 29.68 in 6.0 mi North 24.2 mph 34.5 mph 0.00 in   Overcast
3:50 PM 28.4 °F 13.5 °F 24.8 °F 86% 29.64 in 8.0 mi NNW 26.5 mph 33.4 mph 0.00 in   Overcast
3:52 PM 28.9 °F 14.0 °F 24.1 °F 82% 29.71 in 7.0 mi NNW 27.6 mph 34.5 mph 0.00 in   Overcast
4:04 PM 28.4 °F 13.8 °F 23.0 °F 80% 29.65 in 2.5 mi NNW 25.3 mph 39.1 mph 0.00 in   Overcast
4:10 PM 28.4 °F 13.0 °F 23.0 °F 80% 29.65 in 5.0 mi NNW 28.8 mph 36.8 mph 0.00 in   Overcast
4:27 PM 28.4 °F 13.3 °F 24.8 °F 86% 29.66 in 2.0 mi NNW 27.6 mph 42.6 mph 0.00 in   Overcast
4:33 PM 28.4 °F 13.5 °F 24.8 °F 86% 29.67 in 3.0 mi NNW 26.5 mph 40.3 mph 0.00 in   Overcast
4:49 PM 26.6 °F 10.8 °F 23.0 °F 86% 29.67 in 2.0 mi NNW 27.6 mph 40.3 mph 0.00 in   Overcast
4:52 PM 27.0 °F 11.0 °F 23.0 °F 85% 29.74 in 2.0 mi NNW 28.8 mph 40.3 mph 0.00 in   Overcast
5:03 PM 26.6 °F 10.3 °F 23.0 °F 86% 29.68 in 1.5 mi NNW 29.9 mph 40.3 mph 0.00 in   Overcast
5:13 PM 26.6 °F 11.1 °F 23.0 °F 86% 29.69 in 3.0 mi NNW 26.5 mph 40.3 mph 0.00 in   Overcast
5:23 PM 26.6 °F 11.1 °F 23.0 °F 86% 29.70 in 2.0 mi NNW 26.5 mph 42.6 mph 0.00 in   Overcast
5:33 PM 26.6 °F 11.7 °F 23.0 °F 86% 29.71 in 3.0 mi NNW 24.2 mph 36.8 mph 0.00 in   Overcast
5:52 PM 27.0 °F 13.5 °F 23.0 °F 85% 29.78 in 5.0 mi NNW 19.6 mph 35.7 mph 0.00 in   Overcast
6:28 PM 26.6 °F 11.4 °F 23.0 °F 86% 29.73 in 5.0 mi NNW 25.3 mph 34.5 mph 0.00 in   Overcast
6:52 PM 25.0 °F 9.2 °F 21.0 °F 85% 29.82 in 4.0 mi NNW 25.3 mph 36.8 mph 0.00 in   Overcast
7:52 PM 25.0 °F 8.6 °F 19.9 °F 81% 29.85 in 8.0 mi NNW 27.6 mph 34.5 mph 0.00 in   Overcast
8:52 PM 24.1 °F 9.8 °F 19.0 °F 81% 29.88 in 10.0 mi NW 19.6 mph 33.4 mph 0.00 in   Overcast
9:24 PM 23.0 °F 6.6 °F 17.6 °F 80% 29.82 in 8.0 mi NNW 25.3 mph 34.5 mph 0.00 in   Overcast
9:52 PM 23.0 °F 7.6 °F 18.0 °F 81% 29.91 in 10.0 mi NW 21.9 mph 29.9 mph 0.00 in   Overcast
10:52 PM 23.0 °F 6.9 °F 17.1 °F 78% 29.93 in 7.0 mi NNW 24.2 mph 34.5 mph N/A   Overcast
11:52 PM 21.9 °F 5.8 °F 16.0 °F 78% 29.94 in 10.0 mi NW 23.0 mph - N/A   Overcast